Stations météo

réclame
Mon MeteoGroup
Cozzo Spadaro, Italie (16480): Température de l'air & dewpoint: 12.02.2019 19:00:00 - 18.02.2019 19:00:00 (CET)Cozzo Spadaro, Italie (16480): Vitesse du vent: 12.02.2019 19:00:00 - 18.02.2019 19:00:00 (CET)Cozzo Spadaro, Italie (16480): Direction du vent: 12.02.2019 19:00:00 - 18.02.2019 19:00:00 (CET)Cozzo Spadaro, Italie (16480): reduced air pressure: 12.02.2019 19:00:00 - 18.02.2019 19:00:00 (CET)Cozzo Spadaro, Italie (16480): visibility: 12.02.2019 19:00:00 - 18.02.2019 19:00:00 (CET)Cozzo Spadaro, Italie (16480): Ensoleillement: 12.02.2019 19:00:00 - 18.02.2019 19:00:00 (CET)
Date & Time tt [°C] td [°C] ff [km/h] ff [knt] dd ppp [hPa] vv [km] sd [min]
18.02.2019 19:00:00 11,6 7,9 11 6 WNW 1022,5 20 -
18.02.2019 18:00:00 12,4 8,3 13 7 W 1022,5 20 0
18.02.2019 17:00:00 13,4 8,3 16 9 W 1022,6 20 60
18.02.2019 16:00:00 14,2 7,7 21 11 W 1023,0 20 60
18.02.2019 15:00:00 14,8 6,6 18 10 W 1023,2 20 60
18.02.2019 14:00:00 15,2 6,7 18 10 W 1023,4 20 60
18.02.2019 13:00:00 15,2 7,0 15 8 W 1024,6 20 60
18.02.2019 12:00:00 15,0 7,3 15 8 W 1025,3 20 60
18.02.2019 11:00:00 14,8 8,1 11 6 WNW 1025,4 20 60
18.02.2019 10:00:00 14,0 9,4 11 6 WNW 1025,7 20 60
18.02.2019 09:00:00 11,8 7,9 8 4 NW 1025,9 20 60
18.02.2019 08:00:00 9,4 5,8 11 6 NW 1025,6 20 48
18.02.2019 07:00:00 8,8 5,0 9 5 NW 1025,3 20 0
18.02.2019 06:00:00 - - - - - - - -
18.02.2019 05:00:00 - - - - - - - -
18.02.2019 04:00:00 - - - - - - - -
18.02.2019 03:00:00 - - - - - - - -
18.02.2019 02:00:00 - - - - - - - -
18.02.2019 01:00:00 - - - - - - - -
18.02.2019 00:00:00 - - - - - - - -
17.02.2019 23:00:00 - - - - - - - -
17.02.2019 22:00:00 - - - - - - - -
17.02.2019 21:00:00 - - - - - - - -
17.02.2019 20:00:00 - - - - - - - -
17.02.2019 19:00:00 11,0 5,5 8 4 WNW 1026,4 20 -
17.02.2019 18:00:00 12,0 5,2 8 4 W 1026,4 20 12
17.02.2019 17:00:00 14,0 4,6 9 5 W 1026,7 20 60
17.02.2019 16:00:00 15,0 5,5 9 5 W 1027,1 20 60
17.02.2019 15:00:00 15,0 5,2 8 4 SW 1027,2 20 60
17.02.2019 14:00:00 15,0 5,8 5 3 SSW 1027,5 20 60
17.02.2019 13:00:00 15,0 6,3 5 3 SSE 1028,0 20 60
17.02.2019 12:00:00 15,0 6,3 8 4 E 1028,2 20 60
17.02.2019 11:00:00 14,8 5,9 8 4 NE 1028,9 20 60
17.02.2019 10:00:00 13,6 5,0 8 4 NNE 1028,6 20 60
17.02.2019 09:00:00 12,6 5,3 8 4 N 1028,3 20 60
17.02.2019 08:00:00 10,0 4,2 9 5 N 1028,3 20 36
17.02.2019 07:00:00 7,8 3,5 11 6 N 1027,5 20 0
17.02.2019 06:00:00 - - - - - - - -
17.02.2019 05:00:00 - - - - - - - -
17.02.2019 04:00:00 - - - - - - - -
17.02.2019 03:00:00 - - - - - - - -
17.02.2019 02:00:00 - - - - - - - -
17.02.2019 01:00:00 - - - - - - - -
17.02.2019 00:00:00 - - - - - - - -
16.02.2019 23:00:00 - - - - - - - -
16.02.2019 22:00:00 - - - - - - - -
16.02.2019 21:00:00 - - - - - - - -
16.02.2019 20:00:00 - - - - - - - -
16.02.2019 19:00:00 11,6 5,5 18 10 ENE 1026,6 20 -
16.02.2019 18:00:00 11,4 4,4 18 10 ENE 1026,2 20 0
16.02.2019 17:00:00 11,8 4,8 21 11 ENE 1026,3 20 60
16.02.2019 16:00:00 12,8 4,5 22 12 ENE 1026,2 20 60
16.02.2019 15:00:00 13,0 5,4 26 14 ENE 1026,2 20 60
16.02.2019 14:00:00 12,4 6,2 22 12 ENE 1026,3 20 60
16.02.2019 13:00:00 10,2 7,1 24 13 E 1026,3 20 0
16.02.2019 12:00:00 11,2 5,9 22 12 ENE 1027,4 20 0
16.02.2019 11:00:00 9,0 6,8 35 19 E 1026,2 4,0 0
16.02.2019 10:00:00 12,2 6,3 34 18 NE 1025,2 10 54
16.02.2019 09:00:00 11,8 5,4 35 19 ENE 1024,7 20 42
16.02.2019 08:00:00 10,0 6,7 37 20 NE 1024,4 20 0
16.02.2019 07:00:00 10,0 4,8 34 18 ENE 1023,3 20 0
16.02.2019 06:00:00 - - - - - - - -
16.02.2019 05:00:00 - - - - - - - -
16.02.2019 04:00:00 - - - - - - - -
16.02.2019 03:00:00 - - - - - - - -
16.02.2019 02:00:00 - - - - - - - -
16.02.2019 01:00:00 - - - - - - - -
16.02.2019 00:00:00 - - - - - - - -
15.02.2019 23:00:00 - - - - - - - -
15.02.2019 22:00:00 - - - - - - - -
15.02.2019 21:00:00 - - - - - - - -
15.02.2019 20:00:00 - - - - - - - -
15.02.2019 19:00:00 11,6 8,8 24 13 ESE 1022,0 10 -
15.02.2019 18:00:00 12,4 8,3 22 12 ESE 1021,7 10 0
15.02.2019 17:00:00 14,8 7,4 4 2 W 1021,7 20 48
15.02.2019 16:00:00 14,4 7,0 5 3 W 1022,0 20 18
15.02.2019 15:00:00 16,0 5,6 8 4 SSW 1022,2 20 60
15.02.2019 14:00:00 15,2 5,4 8 4 W 1023,0 20 42
15.02.2019 13:00:00 15,8 5,7 9 5 SW 1023,6 20 36
15.02.2019 12:00:00 16,0 3,1 5 3 W 1025,1 20 60
15.02.2019 11:00:00 15,8 4,2 8 4 NE 1025,1 20 60
15.02.2019 10:00:00 15,2 3,7 8 4 N 1025,1 20 60
15.02.2019 09:00:00 12,4 3,9 9 5 NNW 1025,2 20 60
15.02.2019 08:00:00 10,4 1,8 9 5 NW 1024,9 20 12
15.02.2019 07:00:00 9,4 -0,5 9 5 NW 1024,7 20 0
15.02.2019 06:00:00 - - - - - - - -
15.02.2019 05:00:00 - - - - - - - -
15.02.2019 04:00:00 - - - - - - - -
15.02.2019 03:00:00 - - - - - - - -
15.02.2019 02:00:00 - - - - - - - -
15.02.2019 01:00:00 - - - - - - - -
15.02.2019 00:00:00 - - - - - - - -
14.02.2019 23:00:00 - - - - - - - -
14.02.2019 22:00:00 - - - - - - - -
14.02.2019 21:00:00 - - - - - - - -
14.02.2019 20:00:00 - - - - - - - -
14.02.2019 19:00:00 10,8 4,7 2 1 WSW 1026,4 20 -
14.02.2019 18:00:00 12,0 4,5 2 1 WSW 1027,0 20 0
14.02.2019 17:00:00 13,8 3,9 4 2 W 1027,2 20 60
14.02.2019 16:00:00 14,0 3,2 8 4 SW 1027,2 20 60
14.02.2019 15:00:00 14,0 2,3 9 5 WSW 1027,4 20 60
14.02.2019 14:00:00 14,4 4,1 8 4 WSW 1027,6 20 60
14.02.2019 13:00:00 14,2 3,9 15 8 ENE 1028,0 20 60
14.02.2019 12:00:00 13,4 1,7 13 7 NE 1028,2 25 60
14.02.2019 11:00:00 13,0 0,7 8 4 NE 1027,7 25 60
14.02.2019 10:00:00 12,6 2,2 4 2 NNW 1028,1 20 60
14.02.2019 09:00:00 9,6 1,2 13 7 NW 1027,3 25 60
14.02.2019 08:00:00 8,0 0,0 15 8 NNW 1027,0 25 24
14.02.2019 07:00:00 8,0 0,5 18 10 N 1026,5 25 0
14.02.2019 06:00:00 - - - - - - - -
14.02.2019 05:00:00 - - - - - - - -
14.02.2019 04:00:00 - - - - - - - -
14.02.2019 03:00:00 - - - - - - - -
14.02.2019 02:00:00 - - - - - - - -
14.02.2019 01:00:00 - - - - - - - -
14.02.2019 00:00:00 - - - - - - - -
13.02.2019 23:00:00 - - - - - - - -
13.02.2019 22:00:00 - - - - - - - -
13.02.2019 21:00:00 - - - - - - - -
13.02.2019 20:00:00 - - - - - - - -
13.02.2019 19:00:00 10,0 -1,4 21 11 ENE 1024,3 25 -
13.02.2019 18:00:00 10,2 -0,6 24 13 NNE 1023,7 25 0
13.02.2019 17:00:00 10,9 -0,6 29 16 ENE 1023,1 25 60
13.02.2019 16:00:00 11,8 0,2 28 15 NE 1023,2 25 48
13.02.2019 15:00:00 12,0 2,7 13 7 ENE 1023,2 25 60
13.02.2019 14:00:00 11,4 0,5 4 2 NNE 1023,3 25 0
13.02.2019 13:00:00 12,0 1,9 8 4 NNE 1024,2 25 0
13.02.2019 12:00:00 10,4 2,5 21 11 NE 1025,1 25 0
13.02.2019 11:00:00 11,0 2,8 26 14 NE 1025,2 25 0
13.02.2019 10:00:00 10,8 1,6 28 15 NE 1024,5 25 0
13.02.2019 09:00:00 9,8 1,7 22 12 NNE 1024,3 25 0
13.02.2019 08:00:00 8,0 -1,3 9 5 NW 1023,4 25 0
13.02.2019 07:00:00 7,8 -1,4 13 7 NNW 1023,2 25 0
13.02.2019 06:00:00 - - - - - - - -
13.02.2019 05:00:00 - - - - - - - -
13.02.2019 04:00:00 - - - - - - - -
13.02.2019 03:00:00 - - - - - - - -
13.02.2019 02:00:00 - - - - - - - -
13.02.2019 01:00:00 - - - - - - - -
13.02.2019 00:00:00 - - - - - - - -
12.02.2019 23:00:00 - - - - - - - -
12.02.2019 22:00:00 - - - - - - - -
12.02.2019 21:00:00 - - - - - - - -
12.02.2019 20:00:00 - - - - - - - -
12.02.2019 19:00:00 10,0 2,1 15 8 N 1019,8 20 -

tt = Température de l'air
td = dewpoint
ff = Vitesse du vent
dd = Direction du vent
ppp = reduced air pressure
vv = visibility
sd = Ensoleillement

stations d'obs. à proximité